Weather Roundup
Issued by NWS Corpus Christi, TX

Home | Current Version | Previous Version | Text Only | Print | Product List | Glossary On
Versions: 1 2 3 4 5 6 7 8 9 10 11 12 13 14 15 16 17 18 19 20 21 22 23 24 25 26 27 28 29 30 31 32 33 34 35 36 37 38 39 40 41 42 43 44 45 46 47 48 49 50
000
ASUS44 KCRP 250810
HRRCRP

SOUTH TEXAS REGIONAL WEATHER ROUNDUP
NATIONAL WEATHER SERVICE CORPUS CHRISTI TX
300 AM CDT SAT MAR 25 2017


TXZ229>244-250900-
...CORPUS CHRISTI AREA OBSERVATIONS...

CITY           SKY/WX    TMP DP  RH WIND       PRES   REMARKS
CORPUS CHRISTI PTCLDY    68  68 100 S3        29.97F FOG
NAS CORPUS CHR CLOUDY   N/A N/A N/A S9        29.96F HAZE
ROCKPORT       CLOUDY    72  69  90 S13G20    29.96S FOG
KINGSVILLE NAS CLOUDY    69  69 100 CALM      29.96F FOG
ALICE          CLOUDY    67  66  97 S5        29.96F
ORANGE GROVE   MOCLDY    67  67 100 S5        29.97F
FALFURRIAS     PTCLDY    66  65  96 E3        29.96S
$$

...VICTORIA AREA OBSERVATIONS...

CITY           SKY/WX    TMP DP  RH WIND       PRES   REMARKS
VICTORIA       CLOUDY    73  69  87 S14       29.96F
BEEVILLE       FAIR     N/A N/A N/A S6        29.97S
PLEASANTON     PTCLDY    64  63  98 CALM      29.97S
SAN ANTONIO    PTCLDY    56  46  69 N16       29.98S
$$

...LAREDO AREA OBSERVATIONS...

CITY           SKY/WX    TMP DP  RH WIND       PRES   REMARKS
LAREDO         PTCLDY    70  65  84 E6        29.96F
COTULLA        PTCLDY    67  61  81 SE5       29.96S
DEL RIO          N/A     61  36  39 N7        30.01S
MCALLEN        CLOUDY    75  70  84 SE9       29.96F
HEBBRONVILLE   CLEAR     65  63  91 CALM      29.98S
$$

...OTHER TEXAS OBSERVATIONS...

CITY           SKY/WX    TMP DP  RH WIND       PRES   REMARKS
BROWNSVILLE    CLEAR     71  69  93 S8        29.97F
HOUSTON        MOCLDY    69  64  84 S5        29.94F
COL. STATION   CLOUDY    69  67  93 W10       29.94R
AUSTIN         CLEAR     63  50  62 SW3       29.97R
WACO           PTCLDY    60  42  51 NW10      29.95R
FORT WORTH     PTCLDY    61  46  57 W16G28    29.89R
WICHITA FALLS  CLOUDY    53  42  66 NW18G28   29.95R
LUBBOCK        CLEAR     44  35  70 NW16      30.08R
EL PASO        CLEAR     58  22  24 S7        30.10F
$$

...MARINE OBSERVATIONS...

STATION/POSITION TIME  SKY/WX   TEMP    WIND        PRES    VSBY  WAVE   SWELL
                                AIR SEA DIR/SP/G                  HT/PER HT/PER
                 (UTC)          (F)     (DEG/KT/KT) (MB)    (MI)  (FT/S) (FT/S)
PORT ARANSAS     0800            70 71  180/  8/  9 1014.7F
BUOY 90 E PORT A 0650            74 72  170/ 19/ 23 1015.1          8/ 8   5/ 8
BUOY 45 SE BAFFI 0650            73     170/ 14/ 16 1014.3          8/ 8   7/ 8
BUOY 200 E PT IS 0650            76 76  150/ 16/ 19 1016.7          8/ 8   3/ 8
BUOY 15 E GALVES 0650            72 70  190/ 19/ 25 1014.6          6/ 8   3/ 8
$$




USA.gov is the U.S. government's official web portal to all federal, state and local government web resources and services.